User: anonymous   Login
Location: Unspecified
(0.0000°N, 0.0000°E)
Time: 19:18:23
(UTC+00:00)
Language:

STARLINK-5824 - Orbit

View from above orbital plane
View from above orbital plane
View from above satellite
View from above satellite

Ground track
Ground track

The orbit is defined by the following mean orbital elements,

1 57067U          26145.40306851 +.00000000 +00000-0 -42295-6 0 00002
2 57067  43.0047  37.5015 0001115 268.1733  91.8991 15.27577310    09
Epoch (UTC): 25 May 2026 09:40:25
Eccentricity: 0.0001115
inclination: 43.0047°
perigee height: 482 km
apogee height: 484 km
right ascension of ascending node: 37.5015°
argument of perigee: 268.1733°
revolutions per day: 15.27577310
mean anomaly at epoch: 91.8991°

The dashed part of the orbit path shows where the satellite is in the earth's shadow,  

DLR